CAPE
0 0 0 0 0 0 0 0 0 0 0 0 0 0 0 0 0 0 0 0 0 0 0 0 0 0 0 0 0 0 0 0 0 0 0 0 0 0 0 0 0 0 0 0
0 0 0 0 0 0 0 0 0 0 0 0 0 0 0 0 0 0 0 0 0 0 0 0 0 0 0 0 0 0 0 0 0 0 0 0 0 0 0 0 0 0 0 0
0 0 0 0 0 0 0 0 0 0 0 0 0 0 0 0 0 0 0 0 0 0 0 0 0 0 0 0 0 0 0 0 0 0 0 0 0 0 0 0 0 0 0 0
0 0 0 0 0 0 0 0 0 0 0 0 0 0 0 0 0 0 0 0 0 0 0 0 0 0 0 0 0 0 0 0 0 0 0 0 0 0 0 0 0 0 0 0
0 0 0 0 0 0 0 0 0 0 0 0 0 0 0 0 0 0 0 0 0 0 0 0 0 0 0 0 0 0 0 0 0 0 0 0 0 0 0 0 0 0 0 0
0 0 0 0 0 0 0 0 0 0 0 0 0 0 0 0 0 0 0 0 0 0 0 0 0 0 0 0 0 0 0 0 0 0 0 0 0 0 0 0 0 0 0 0
0 0 0 0 0 0 0 0 0 0 0 0 0 0 0 0 0 0 0 0 0 0 0 0 0 0 0 0 0 0 0 0 0 0 0 0 0 0 0 0 0 0 0 0
0 0 0 0 0 0 0 0 0 0 0 0 0 0 0 0 0 0 0 0 0 0 0 0 0 0 0 0 0 0 0 0 0 0 0 0 0 0 0 0 0 0 0 0
0 0 0 0 0 0 0 0 0 0 0 0 0 0 0 0 0 0 0 0 0 0 0 0 0 0 0 0 0 0 0 0 0 0 0 0 0 0 0 0 0 0 0 0
0 0 0 0 0 0 0 0 0 0 0 0 0 0 0 0 0 0 0 0 0 0 0 0 0 0 0 0 0 0 0 0 0 0 0 0 0 0 0 0 0 0 0 0
0 0 0 0 0 0 0 0 0 0 0 0 0 0 0 0 0 0 0 0 0 0 0 0 0 0 0 0 0 0 0 0 0 0 0 0 0 0 0 0 0 0 1 0
0 0 0 0 0 0 0 0 0 0 0 0 0 0 0 0 0 0 0 0 0 0 0 0 0 0 0 0 0 0 0 0 0 0 0 0 0 0 0 0 1 2 4 2
0 0 0 0 0 0 0 0 0 0 0 0 0 0 0 0 0 0 0 0 0 0 0 0 0 0 0 0 0 0 0 0 0 0 0 0 0 0 0 1 1 1 3 3
0 0 0 0 0 0 0 0 0 0 0 0 0 0 0 0 0 0 0 0 0 0 0 0 0 0 0 0 0 0 0 0 0 0 0 0 0 0 0 1 0 0 0 3
0 0 0 0 0 0 0 0 0 0 0 0 0 0 0 0 0 0 0 0 0 0 0 0 0 0 0 0 0 0 0 0 0 0 0 0 0 0 1 0 0 1 0 7
0 0 0 0 0 0 0 0 0 0 0 0 0 0 0 0 0 0 0 0 0 0 0 0 0 0 0 0 0 0 0 0 0 0 0 0 0 0 0 0 2 0 0 0
0 0 0 0 0 0 0 0 0 0 0 0 0 0 0 0 0 0 0 0 0 0 0 0 0 0 0 0 0 0 0 0 0 0 0 0 0 0 0 0 0 0 0 0
0 0 0 0 0 0 0 0 0 0 0 0 0 0 0 0 0 0 0 0 0 0 0 0 0 0 0 0 0 0 0 0 0 0 0 0 0 0 0 0 0 0 0 0
0 0 0 0 0 0 0 0 0 0 0 0 0 0 0 0 0 0 0 0 0 0 0 0 0 0 0 0 0 0 0 0 0 0 0 0 0 0 0 0 0 0 0 0
0 0 0 0 0 0 0 0 0 0 0 0 0 0 0 0 0 0 0 0 0 0 0 0 0 0 0 0 0 0 0 0 0 0 0 0 0 0 0 0 0 0 0 0
0 0 0 0 0 0 0 0 0 0 0 0 0 0 0 0 0 0 0 0 0 0 0 0 0 0 0 0 0 0 0 0 0 1 0 0 0 0 0 0 0 0 0 0
0 0 0 0 0 0 0 0 0 0 0 0 0 0 0 0 0 0 0 0 0 0 0 0 0 0 0 0 0 0 0 0 0 0 0 0 0 0 1 0 0 0 0 0
0 0 0 0 0 0 0 0 0 0 0 0 0 0 0 0 0 0 0 0 0 0 0 0 0 0 0 0 0 0 0 0 0 0 0 0 0 0 0 0 0 0 0 0
0 0 0 0 0 0 0 0 0 0 0 0 0 0 0 0 0 0 0 0 0 0 0 0 0 0 0 0 0 0 0 0 0 0 0 0 0 0 0 0 0 0 0 0
0 0 0 0 0 0 0 0 0 0 0 0 0 0 0 0 0 0 0 0 0 0 0 0 0 0 0 0 0 0 0 0 0 0 0 0 0 0 0 0 0 0 0 0
0 0 0 0 0 0 0 0 0 0 0 0 0 0 0 0 0 0 0 0 0 0 0 0 0 0 0 0 0 0 0 0 0 0 0 0 0 0 0 0 0 0 0 0
CIN
0 0 0 0 0 0 0 0 0 0 0 0 0 0 0 0 0 0 0 0 0 0 0 0 0 0 0 0 0 0 0 0 0 0 0 0 0 0 0 0 0 0 0 0
0 0 0 0 0 0 0 0 0 0 0 0 0 0 0 0 0 0 0 0 0 0 0 0 0 0 0 0 0 0 0 0 0 0 0 0 0 0 0 0 0 0 0 0
0 0 0 0 0 0 0 0 0 0 0 0 0 0 0 0 0 0 0 0 0 0 0 0 0 0 0 0 0 0 0 0 0 0 0 0 0 0 0 0 0 0 0 0
0 0 0 0 0 0 0 0 0 0 0 0 0 0 0 0 0 0 0 0 0 0 0 0 0 0 0 0 0 0 0 0 0 0 0 0 0 0 0 0 0 0 0 0
0 0 0 0 0 0 0 0 0 0 0 0 0 0 0 0 0 0 0 0 0 0 0 0 0 0 0 0 0 0 0 0 0 0 0 0 0 0 0 0 0 0 0 0
0 0 0 0 0 0 0 0 0 0 0 0 0 0 0 0 0 0 0 0 0 0 0 0 0 0 0 0 0 0 0 0 0 0 0 0 0 0 0 0 0 0 0 0
0 0 0 0 0 0 0 0 0 0 0 0 0 0 0 0 0 0 0 0 0 0 0 0 0 0 0 0 0 0 0 0 0 0 0 0 0 0 0 0 0 0 0 0
0 0 0 0 0 0 0 0 0 0 0 0 0 0 0 0 0 0 0 0 0 0 0 0 0 0 0 0 0 0 0 0 0 0 0 0 0 0 0 0 0 0 0 0
0 0 0 0 0 0 0 0 0 0 0 0 0 0 0 0 0 0 0 0 0 0 0 0 0 0 0 0 0 0 0 0 0 0 0 0 0 0 0 0 0 0 0 0
0 0 0 0 0 0 0 0 0 0 0 0 0 0 0 0 0 0 0 0 0 0 0 0 0 0 0 0 0 0 0 0 0 0 0 0 0 0 0 0 0 0 0 0
0 0 0 0 0 0 0 0 0 0 0 0 0 0 0 0 0 0 0 0 0 0 0 0 0 0 0 0 0 0 0 0 0 0 0 0 0 0 0 0 0 -1 -1 -1
0 0 0 0 0 0 0 0 0 0 0 0 0 0 0 0 0 0 0 0 0 0 0 0 0 0 0 0 0 0 0 0 0 0 0 0 0 0 0 0 0 0 0 0
0 0 0 0 0 0 0 0 0 0 0 0 0 0 0 0 0 0 0 0 0 0 0 0 0 0 0 0 0 0 0 0 0 0 0 0 0 0 0 0 0 0 0 0
0 0 0 0 0 0 0 0 0 0 0 0 0 0 0 0 0 0 0 0 0 0 0 0 0 0 0 0 0 0 0 0 0 0 0 0 0 0 0 0 0 0 0 0
0 0 0 0 0 0 0 0 0 0 0 0 0 0 0 0 0 0 0 0 0 0 0 0 0 0 0 0 0 0 0 0 0 0 0 0 0 0 0 0 0 0 0 0
0 0 0 0 0 0 0 0 0 0 0 0 0 0 0 0 0 0 0 0 0 0 0 0 0 0 0 0 0 0 0 0 0 0 0 0 0 0 0 -1 0 0 0 0
0 0 0 0 0 0 0 0 0 0 0 0 0 0 0 0 0 0 0 0 0 0 0 0 0 0 0 0 0 0 0 0 0 0 0 0 0 0 0 0 0 0 0 0
0 0 0 0 0 0 0 0 0 0 0 0 0 0 0 0 0 0 0 0 0 0 0 0 0 0 0 0 0 0 0 0 0 0 0 0 0 0 0 0 0 0 0 0
0 0 0 0 0 0 0 0 0 0 0 0 0 0 0 0 0 0 0 0 0 0 0 0 0 0 0 0 0 0 0 0 0 0 0 0 0 0 0 0 0 0 -2 0
0 0 0 0 0 0 0 0 0 0 0 0 0 0 0 0 0 0 0 0 0 0 0 0 0 0 0 0 0 0 0 0 0 0 0 0 0 0 0 0 0 -1 0 0
0 0 0 0 0 0 0 0 0 0 0 0 0 0 0 0 0 0 0 0 0 0 0 0 0 0 0 0 0 0 0 0 0 0 0 0 0 0 0 0 0 -1 0 0
0 0 0 0 0 0 0 0 0 0 0 0 0 0 0 0 0 0 0 0 0 0 0 0 0 0 0 0 0 0 0 0 0 0 0 0 0 0 0 0 -1 0 0 0
0 0 0 0 0 0 0 0 0 0 0 0 0 0 0 0 0 0 0 0 0 0 0 0 0 0 0 0 0 0 0 0 0 0 0 0 0 0 0 0 0 0 0 0
0 0 0 0 0 0 0 0 0 0 0 0 0 0 0 0 0 0 0 0 0 0 0 0 0 0 0 0 0 0 0 0 0 0 0 0 0 0 0 0 0 0 0 0
0 0 0 0 0 0 0 0 0 0 0 0 0 0 0 0 0 0 0 0 0 0 0 0 0 0 0 0 0 0 0 0 0 0 0 0 0 0 0 0 0 0 0 0
0 0 0 0 0 0 0 0 0 0 0 0 0 0 0 0 0 0 0 0 0 0 0 0 0 0 0 0 0 0 0 0 0 0 0 0 0 0 0 0 0 0 0 -1
Wind_Speed
19 20 21 13 14 16 15 13 9 7 7 7 3 11 9 3 6 5 7 9 11 13 15 18 20 22 25 27 29 31 33 34 36 37 39 38 41 39 40 39 41 41 43 44
14 11 13 13 13 14 12 10 6 5 7 3 3 17 13 4 3 3 6 8 10 13 15 17 20 23 25 27 29 31 33 35 36 37 38 37 41 38 41 41 42 42 45 45
18 15 12 14 10 10 10 8 3 2 4 5 5 8 10 10 8 9 9 10 12 15 17 19 21 23 25 28 30 32 34 36 37 39 40 41 41 42 42 46 45 46 47 47
13 10 12 13 11 9 7 9 2 2 7 10 19 8 18 16 13 11 10 12 14 16 18 20 22 24 27 29 31 33 35 38 39 40 43 45 46 50 47 47 47 48 48 47
15 14 13 12 9 9 8 4 8 12 12 12 15 13 16 21 18 17 13 12 13 15 17 19 22 24 26 29 32 34 36 38 40 42 43 45 47 47 48 48 50 49 48 47
16 15 13 10 9 11 11 13 16 15 15 15 16 21 20 19 21 24 23 14 13 15 17 20 22 25 28 30 33 37 39 40 42 44 44 46 49 51 53 53 53 51 49 49
10 12 13 12 11 15 19 19 15 14 16 17 19 21 13 19 21 22 24 22 15 17 19 23 26 27 29 32 37 40 42 44 44 45 46 47 49 51 52 53 52 54 53 52
10 11 13 16 19 17 21 22 21 14 17 17 24 17 24 23 23 23 22 23 21 20 22 27 28 29 32 36 38 41 44 46 46 46 48 48 48 50 50 50 52 52 53 52
11 11 16 19 19 21 21 23 20 19 20 21 19 21 25 26 22 23 22 26 24 23 28 29 30 32 36 37 40 43 45 47 47 49 49 50 49 49 51 52 51 51 51 51
13 6 15 16 18 23 20 19 24 25 24 26 23 25 27 27 30 28 26 27 28 29 30 31 32 36 37 37 41 43 45 47 47 48 49 50 50 50 51 52 52 52 52 52
16 13 12 16 15 17 20 22 24 23 22 25 31 28 25 30 30 30 30 31 36 34 33 34 36 38 37 39 42 44 46 47 49 49 50 51 52 52 52 53 53 53 52 51
17 16 12 18 20 18 18 22 22 24 26 24 28 35 29 28 29 31 33 39 39 36 34 36 39 39 40 43 44 46 47 48 48 49 51 52 52 53 54 54 54 53 52 50
16 18 15 20 20 20 20 21 23 24 27 28 30 33 31 33 33 36 40 40 38 34 35 39 39 41 43 44 46 47 48 49 49 50 51 53 53 54 55 55 54 54 52 50
16 15 13 16 18 23 22 23 22 23 29 32 30 40 37 38 40 40 40 39 37 35 36 39 41 43 44 45 47 48 49 49 50 51 53 54 55 56 55 54 55 54 52 50
17 18 17 16 19 22 24 25 24 24 25 31 37 35 39 39 40 38 39 37 41 39 39 41 43 44 45 47 47 48 49 50 51 53 54 55 56 56 54 55 55 53 54 50
21 22 24 25 25 23 26 25 24 25 27 30 33 38 35 33 34 36 39 41 41 41 41 43 44 45 47 48 49 49 50 52 52 54 56 56 57 56 56 56 56 57 53 49
24 24 29 28 30 34 30 27 28 29 28 30 36 38 35 35 38 41 41 40 40 41 43 44 45 46 47 49 49 52 52 52 54 55 56 57 57 58 57 57 55 53 50 48
20 24 25 27 33 32 34 32 31 31 29 27 33 31 34 37 39 38 36 37 41 42 42 44 45 47 48 48 49 50 52 53 55 57 58 57 56 58 56 54 52 50 47 45
18 21 26 29 32 34 38 33 36 36 41 31 27 31 35 38 37 38 34 37 38 39 41 43 44 45 46 48 49 51 53 55 57 58 59 56 57 57 54 52 49 46 43 41
21 21 23 30 33 36 39 34 31 34 44 34 30 36 38 37 48 41 35 37 38 39 41 43 44 44 46 48 50 53 55 57 58 58 56 56 54 52 50 46 43 42 39 40
28 29 29 28 33 35 32 29 30 43 43 36 37 36 37 40 36 33 35 37 37 39 41 41 42 45 46 48 51 55 56 57 56 54 54 53 50 47 43 40 39 38 39 35
30 31 32 30 34 41 26 30 38 38 35 34 34 34 34 32 32 33 35 37 38 40 42 42 44 46 47 49 52 55 56 55 53 53 52 50 46 43 40 37 36 37 34 32
31 25 31 26 33 35 29 34 33 33 35 33 31 30 29 31 33 33 36 36 38 39 40 41 44 47 49 50 51 55 54 52 52 51 49 46 42 39 38 36 34 34 33 30
30 25 33 36 37 35 34 32 33 32 31 28 27 26 26 30 30 33 34 36 37 38 40 42 46 49 51 50 50 50 51 50 49 49 45 42 39 38 37 34 32 31 30 27
32 30 36 39 39 38 32 30 29 29 26 24 24 24 26 28 30 31 34 34 36 38 40 43 46 49 51 50 51 48 48 48 47 44 41 37 36 35 35 34 31 28 26 22
32 34 35 39 36 34 38 33 28 27 24 22 22 23 24 27 29 30 32 33 36 39 42 45 47 48 50 50 49 48 46 45 44 42 38 34 33 33 33 32 32 26 20 17
Wind_Direction
20 39 35 153 154 144 139 125 139 154 141 226 172 244 245 351 355 340 345 342 342 345 351 352 351 350 349 349 348 347 346 345 345 343 340 339 338 339 339 339 338 336 335 333
149 149 156 155 153 144 147 135 145 196 91 52 276 269 264 260 285 318 321 331 338 343 343 345 346 346 346 345 345 344 343 343 343 342 341 340 337 337 336 336 336 335 333 332
140 147 163 153 156 143 136 134 145 177 266 49 328 356 28 20 3 348 341 342 341 338 337 338 339 340 342 341 341 341 341 341 341 340 339 338 337 335 334 334 333 333 331 330
150 171 156 141 131 125 134 92 95 31 30 29 25 6 7 12 0 351 342 334 334 335 335 336 335 336 338 338 339 339 339 338 338 339 337 336 334 331 332 332 331 330 330 329
134 131 125 123 125 109 103 81 54 38 35 24 26 19 15 4 6 357 340 333 329 331 333 332 333 334 337 338 338 338 338 338 338 337 337 335 333 332 331 330 329 329 329 328
118 114 114 114 110 86 60 46 31 36 35 28 25 10 359 7 3 0 357 342 333 333 335 334 334 334 334 336 337 337 337 337 337 336 335 333 331 330 329 328 328 328 328 328
122 110 98 87 75 56 35 32 28 33 22 16 18 4 1 1 355 357 356 354 342 337 335 332 332 332 333 334 335 335 335 334 335 335 334 333 332 330 329 328 328 327 327 327
98 98 73 53 42 38 31 27 26 10 3 338 358 14 9 1 357 357 358 354 347 337 332 330 331 330 330 331 334 334 334 333 334 334 333 333 332 330 329 329 328 327 326 325
85 78 46 31 29 23 21 18 20 13 7 358 4 2 345 358 1 355 354 352 346 337 332 331 331 331 330 330 331 333 333 333 334 334 333 332 332 330 329 328 327 326 325 325
64 63 46 36 23 14 19 23 7 5 359 349 351 347 350 352 350 349 347 347 344 336 333 332 333 332 333 333 334 334 334 334 334 334 333 333 332 330 329 328 326 326 325 325
40 51 37 24 22 13 11 6 2 359 355 347 344 343 349 343 344 345 344 344 340 337 334 334 334 335 335 335 335 335 335 335 335 334 333 332 331 330 329 327 326 325 324 324
35 25 17 6 6 11 7 358 355 350 345 338 333 318 344 344 344 342 340 338 339 339 338 336 336 336 336 335 336 336 336 335 335 334 333 332 332 331 330 328 327 327 324 324
24 16 3 5 13 10 357 354 345 343 339 326 328 329 345 340 338 334 332 335 337 338 338 337 337 337 337 337 337 337 337 336 336 335 334 333 333 332 330 329 329 327 326 325
16 9 0 341 339 349 337 337 337 335 331 327 315 309 320 324 329 333 334 336 340 339 338 338 338 338 338 338 338 338 337 338 337 336 335 334 333 332 331 330 329 329 327 324
5 348 342 332 330 330 322 324 328 319 311 320 314 319 319 327 331 334 338 341 340 340 339 340 340 339 339 338 339 339 339 339 338 336 335 334 333 333 332 331 330 330 328 325
352 344 344 333 336 337 329 325 324 318 318 314 311 315 323 331 340 341 340 339 340 341 341 341 340 340 340 340 340 340 340 339 339 337 336 335 335 334 333 332 331 329 328 327
342 343 343 336 346 339 341 348 342 342 338 333 329 330 339 340 339 339 339 341 342 342 342 342 342 342 342 342 342 342 341 341 340 338 337 336 336 334 335 334 333 333 332 330
344 344 342 334 342 341 346 343 341 334 334 329 327 330 336 338 339 341 343 345 344 344 344 344 343 343 343 344 344 343 342 342 340 339 338 338 338 337 337 337 337 336 335 334
349 345 340 338 334 327 344 349 346 343 339 337 334 337 341 342 342 343 347 347 347 347 346 345 345 345 346 346 345 344 343 342 341 341 341 341 340 340 340 341 342 342 341 340
349 345 336 338 333 334 340 345 348 347 341 354 354 344 341 343 338 341 347 347 348 349 348 347 348 348 348 348 347 345 344 343 343 343 343 343 343 343 344 346 348 349 348 348
342 339 329 328 329 331 332 338 345 340 338 344 344 343 342 341 343 346 348 348 350 349 349 350 350 349 349 348 347 346 345 345 345 345 345 346 347 348 350 352 354 355 355 358
332 333 331 335 331 332 339 342 334 334 335 337 340 342 343 347 348 348 349 349 350 350 350 351 351 350 350 349 349 347 347 347 348 348 348 350 352 354 356 357 360 2 5 6
330 329 329 319 323 328 326 326 330 332 332 336 339 344 347 347 347 349 348 350 351 351 352 352 352 350 351 351 351 349 349 350 350 351 353 355 357 0 2 4 6 9 12 14
330 323 320 324 319 317 321 318 322 328 333 339 344 347 349 348 350 350 351 352 352 353 353 353 352 351 351 352 353 352 352 353 354 355 358 1 4 6 7 10 12 12 15 16
324 327 321 315 314 321 324 329 333 334 340 344 349 350 351 351 351 353 352 353 353 354 354 354 352 352 352 353 354 355 356 357 358 360 3 7 10 11 13 14 17 18 19 18
318 317 318 317 323 323 328 333 335 336 339 344 350 352 354 355 354 356 356 356 355 355 355 354 354 354 354 355 356 358 359 0 1 3 7 10 13 16 18 20 20 24 22 18